FW2584 Weather Reports


Display with metric or nautical units.
time (UTC)temp
F
wind
direction
speed
MPH
gust
MPH
rain 1hr
in
rain 24hr
in
rain mn
in
humidity
%
barometer
mb
20260906005027 75 0 0.0 0.0 0.00 0.34 0.34 98 1010.6
20260906004538 75 0 0.0 0.0 0.00 0.34 0.34 98 1010.6
20260906004027 75 0 0.0 0.0 0.00 0.34 0.34 98 1010.6
20260906003524 75 0 0.0 0.0 0.00 0.34 0.34 98 1010.6
20260906003041 75 0 0.0 0.0 0.00 0.34 0.34 98 1010.5
20260906002523 75 0 0.0 0.0 0.00 0.34 0.34 98 1010.5
20260906002025 75 0 0.0 0.0 0.00 0.34 0.34 98 1010.4
20260906001538 75 0 0.0 0.0 0.00 0.34 0.34 98 1010.3
20260906001024 75 0 0.0 0.0 0.00 0.34 0.34 98 1010.5
20260906000524 75 0 0.0 0.0 0.00 0.34 0.34 98 1010.6
20260906000045 74 0 0.0 0.0 0.00 0.34 0.34 98 1010.7
20260905235521 75 0 0.0 0.0 0.00 0.34 0.34 98 1010.7
20260905235025 75 0 0.0 0.0 0.00 0.34 0.34 98 1010.8
20260905234544 75 0 0.0 0.0 0.00 0.34 0.34 98 1010.8
20260905234024 75 0 0.0 0.0 0.00 0.34 0.34 98 1010.7
20260905233526 75 0 0.0 0.0 0.00 0.34 0.34 97 1010.6
20260905233044 75 0 0.0 0.0 0.00 0.34 0.34 97 1010.5
20260905232525 75 0 0.0 0.0 0.00 0.34 0.34 97 1010.7
20260905232024 75 0 0.0 0.0 0.00 0.34 0.34 97 1010.8
20260905231540 75 0 0.0 0.0 0.00 0.34 0.34 97 1010.9
20260905231024 76 0 0.0 0.0 0.00 0.34 0.34 97 1010.7
20260905230521 76 0 0.0 0.0 0.00 0.34 0.34 98 1010.7
20260905230050 76 0 0.0 0.0 0.00 0.34 0.34 98 1010.7
20260905225522 76 0 0.0 0.0 0.00 0.34 0.34 97 1010.7
20260905225024 76 0 0.0 0.0 0.00 0.34 0.34 97 1010.5
20260905224558 76 0 0.0 0.0 0.00 0.34 0.34 98 1010.3
20260905224025 76 0 0.0 0.0 0.00 0.34 0.34 98 1010.0
20260905223522 76 0 0.0 0.0 0.00 0.34 0.34 98 1010.0
20260905223042 76 0 0.0 0.0 0.00 0.34 0.34 97 1010.1
20260905222523 76 0 0.0 0.0 0.00 0.34 0.34 97 1009.6
20260905222023 76 0 0.0 0.0 0.00 0.34 0.34 97 1009.5
20260905221555 76 0 0.0 0.0 0.00 0.34 0.34 97 1009.3
20260905221033 76 0 0.0 0.0 0.00 0.34 0.34 97 1009.4
20260905220521 76 0 0.0 0.0 0.00 0.34 0.34 97 1009.5
20260905220050 76 0 0.0 0.0 0.00 0.34 0.34 97 1009.3
20260905215525 77 0 0.0 0.0 0.16 0.34 0.34 97 1009.4
20260905215024 77 0 0.0 0.0 0.34 0.34 0.34 97 1009.2
20260905214541 77 0 0.0 0.0 0.34 0.34 0.34 97 1009.1
20260905214025 77 0 0.0 0.0 0.34 0.34 0.34 97 1009.1
20260905213525 77 0 0.0 0.0 0.34 0.34 0.34 97 1009.4
20260905213050 77 0 0.0 0.0 0.34 0.34 0.34 96 1009.5
20260905212527 76 0 0.0 0.0 0.34 0.34 0.34 95 1009.6
20260905212025 76 0 0.0 0.0 0.34 0.34 0.34 95 1009.7
20260905211539 76 0 0.0 2.0 0.34 0.34 0.34 94 1010.0
20260905211021 76 0 0.0 9.0 0.34 0.34 0.34 93 1009.7
20260905210524 76 0 0.0 14.0 0.34 0.34 0.34 90 1009.6
20260905210043 78 0 1.0 18.0 0.34 0.34 0.34 84 1009.7
20260905205524 85 40 5.0 18.0 0.13 0.13 0.13 73 1011.2
20260905205025 90 263 4.0 18.0 0.00 0.00 0.00 60 1010.4
20260905204542 93 59 5.0 18.0 0.00 0.00 0.00 57 1009.7
20260905204025 96 0 0.0 3.0 0.00 0.00 0.00 60 1009.2
20260905203523 96 0 0.0 3.0 0.00 0.00 0.00 58 1008.9
20260905203110 97 0 0.0 3.0 0.00 0.00 0.00 57 1008.8
20260905202521 98 0 0.0 9.0 0.00 0.00 0.00 56 1008.7
20260905202021 98 0 0.0 10.0 0.00 0.00 0.00 56 1008.7
20260905201545 98 0 0.0 10.0 0.00 0.00 0.00 56 1008.8
20260905201433 99 0 1.0 10.0 0.00 0.00 0.00 55 1008.8
20260905194025 99 0 0.0 8.0 0.00 0.00 0.00 55 1008.9
20260905193543 99 306 0.0 8.0 0.00 0.00 0.00 56 1008.9
20260905193042 99 244 1.0 8.0 0.00 0.00 0.00 55 1009.0
20260905192525 98 0 0.0 5.0 0.00 0.00 0.00 58 1009.1
20260905192418 98 0 0.0 5.0 0.00 0.00 0.00 56 1009.0
20260905162023 94 0 0.0 5.0 0.00 0.00 0.00 68 1012.1
20260905161543 94 0 0.0 5.0 0.00 0.00 0.00 68 1012.3
20260905161023 93 288 0.0 4.0 0.00 0.00 0.00 68 1012.4
20260905160524 94 0 0.0 6.0 0.00 0.00 0.00 69 1012.4
20260905160108 93 0 0.0 6.0 0.00 0.00 0.00 69 1012.5
20260905155524 93 0 0.0 1.0 0.00 0.00 0.00 73 1012.6
20260905155024 92 0 0.0 5.0 0.00 0.00 0.00 72 1012.6
20260905154548 92 0 1.0 5.0 0.00 0.00 0.00 71 1012.7
20260905154025 92 0 0.0 8.0 0.00 0.00 0.00 73 1012.6
20260905153525 91 0 2.0 8.0 0.00 0.00 0.00 72 1012.6
20260905153042 91 0 0.0 1.0 0.00 0.00 0.00 74 1012.8
20260905152524 91 0 0.0 1.0 0.00 0.00 0.00 75 1012.9
20260905152025 91 0 0.0 4.0 0.00 0.00 0.00 74 1012.9
20260905151545 91 0 0.0 5.0 0.00 0.00 0.00 77 1012.9
20260905151025 90 0 0.0 5.0 0.00 0.00 0.00 77 1012.9
20260905150524 89 0 0.0 5.0 0.00 0.00 0.00 77 1012.9
20260905150040 89 0 0.0 5.0 0.00 0.00 0.00 79 1012.9
20260905145525 88 0 0.0 5.0 0.00 0.00 0.00 80 1012.9
20260905145026 88 0 0.0 5.0 0.00 0.00 0.00 80 1012.9
20260905144544 88 0 0.0 5.0 0.00 0.00 0.00 80 1012.9
20260905144027 87 0 0.0 5.0 0.00 0.00 0.00 81 1012.9
20260905143527 87 303 1.0 5.0 0.00 0.00 0.00 81 1012.9
20260905143044 87 0 0.0 4.0 0.00 0.00 0.00 82 1013.0
20260905142524 86 0 1.0 4.0 0.00 0.00 0.00 83 1013.0
20260905142024 86 0 0.0 1.0 0.00 0.00 0.00 83 1013.0
20260905141544 85 0 0.0 4.0 0.00 0.00 0.00 84 1013.0
20260905141021 85 0 0.0 8.0 0.00 0.00 0.00 84 1013.0
20260905140527 85 0 1.0 8.0 0.00 0.00 0.00 84 1013.1
20260905140043 84 235 0.0 3.0 0.00 0.00 0.00 86 1013.1
20260905135526 84 0 0.0 4.0 0.00 0.00 0.00 86 1013.1
20260905135024 83 225 0.0 4.0 0.00 0.00 0.00 87 1013.2
20260905134543 83 225 1.0 4.0 0.00 0.00 0.00 87 1013.2
20260905134026 83 225 1.0 4.0 0.00 0.00 0.00 88 1013.2
20260905133523 83 0 0.0 4.0 0.00 0.00 0.00 88 1013.1
20260905133043 83 0 0.0 4.0 0.00 0.00 0.00 89 1013.2
20260905132527 82 0 0.0 4.0 0.00 0.00 0.00 89 1013.2
20260905132025 82 0 0.0 4.0 0.00 0.00 0.00 91 1013.3
20260905131540 82 0 0.0 4.0 0.00 0.00 0.00 91 1013.3
20260905131024 81 0 1.0 5.0 0.00 0.00 0.00 91 1013.3
20260905130523 81 0 0.0 5.0 0.00 0.00 0.00 93 1013.4
20260905130039 80 196 0.0 4.0 0.00 0.00 0.00 93 1013.4
20260905125524 80 0 0.0 3.0 0.00 0.00 0.00 94 1013.4
20260905125024 80 0 0.0 3.0 0.00 0.00 0.00 95 1013.4
20260905124543 79 0 0.0 3.0 0.00 0.00 0.00 95 1013.5
20260905124024 79 0 0.0 3.0 0.00 0.00 0.00 96 1013.5
20260905123524 79 0 0.0 3.0 0.00 0.00 0.00 96 1013.4
20260905123043 78 0 0.0 1.0 0.00 0.00 0.00 97 1013.4
20260905122522 78 0 0.0 1.0 0.00 0.00 0.00 98 1013.3
20260905122024 78 0 0.0 0.0 0.00 0.00 0.00 98 1013.3
20260905121539 77 0 0.0 0.0 0.00 0.00 0.00 98 1013.4
20260905121026 77 0 0.0 1.0 0.00 0.00 0.00 98 1013.4
20260905120525 77 0 0.0 1.0 0.00 0.00 0.00 98 1013.3
20260905120042 77 0 0.0 1.0 0.00 0.00 0.00 98 1013.2
20260905115524 77 0 0.0 1.0 0.00 0.00 0.00 98 1013.2
20260905115027 76 0 0.0 1.0 0.00 0.00 0.00 98 1013.1
20260905114539 77 0 0.0 0.0 0.00 0.00 0.00 99 1013.1
20260905114023 76 0 0.0 0.0 0.00 0.00 0.00 99 1013.1
20260905113523 76 0 0.0 0.0 0.00 0.00 0.00 99 1013.1
20260905113047 76 0 0.0 0.0 0.00 0.00 0.00 99 1012.8
20260905112526 76 0 0.0 0.0 0.00 0.00 0.00 99 1012.8
20260905112023 76 0 0.0 0.0 0.00 0.00 0.00 99 1012.7
20260905111549 76 0 0.0 0.0 0.00 0.00 0.00 99 1012.7
20260905111025 76 0 0.0 0.0 0.00 0.00 0.00 99 1012.7
20260905110527 76 0 0.0 0.0 0.00 0.00 0.00 99 1012.7
20260905110041 76 0 0.0 0.0 0.00 0.00 0.00 99 1012.7
20260905105524 76 0 0.0 0.0 0.00 0.00 0.00 99 1012.6
20260905105023 76 0 0.0 0.0 0.00 0.00 0.00 98 1012.5
20260905104541 76 0 0.0 0.0 0.00 0.00 0.00 98 1012.4
20260905104024 76 0 0.0 0.0 0.00 0.00 0.00 98 1012.4
20260905103524 76 0 0.0 0.0 0.00 0.00 0.00 98 1012.5
20260905103049 76 0 0.0 0.0 0.00 0.00 0.00 98 1012.4
20260905102525 76 0 0.0 0.0 0.00 0.00 0.00 98 1012.3
20260905102024 76 0 0.0 0.0 0.00 0.00 0.00 98 1012.4
20260905101543 76 0 0.0 0.0 0.00 0.00 0.00 98 1012.3
20260905101023 76 0 0.0 0.0 0.00 0.00 0.00 98 1012.2
20260905100524 76 0 0.0 0.0 0.00 0.00 0.00 98 1012.3
20260905100045 76 0 0.0 0.0 0.00 0.00 0.00 98 1012.2
20260905095524 76 0 0.0 0.0 0.00 0.00 0.00 98 1012.3
20260905095025 76 0 0.0 0.0 0.00 0.00 0.00 98 1012.2
20260905094539 76 0 0.0 0.0 0.00 0.00 0.00 98 1012.3
20260905094024 76 0 0.0 0.0 0.00 0.00 0.00 98 1012.4
20260905093531 76 0 0.0 0.0 0.00 0.00 0.00 98 1012.4
20260905093045 76 0 0.0 0.0 0.00 0.00 0.00 98 1012.4
20260905092524 76 0 0.0 0.0 0.00 0.00 0.00 98 1012.3
20260905092024 76 0 0.0 0.0 0.00 0.00 0.00 98 1012.3
20260905091613 76 0 0.0 0.0 0.00 0.00 0.00 98 1012.3
20260905091030 76 0 0.0 0.0 0.00 0.00 0.00 98 1012.3
20260905090524 76 0 0.0 0.0 0.00 0.00 0.00 98 1012.4
20260905090043 76 0 0.0 0.0 0.00 0.00 0.00 98 1012.6
20260905085524 76 0 0.0 0.0 0.00 0.00 0.00 98 1012.6
20260905085021 76 0 0.0 0.0 0.00 0.00 0.00 98 1012.6
20260905084541 76 0 0.0 0.0 0.00 0.00 0.00 98 1012.6
20260905084025 76 0 0.0 0.0 0.00 0.00 0.00 98 1012.7
20260905083526 76 0 0.0 0.0 0.00 0.00 0.00 98 1012.7
20260905083046 77 0 0.0 0.0 0.00 0.00 0.00 98 1012.7
20260905082521 77 0 0.0 0.0 0.00 0.00 0.00 98 1012.8
20260905082024 77 0 0.0 0.0 0.00 0.00 0.00 98 1012.8
20260905081542 77 0 0.0 0.0 0.00 0.00 0.00 98 1013.0
20260905081025 77 0 0.0 0.0 0.00 0.00 0.00 98 1013.0
20260905080524 77 0 0.0 0.0 0.00 0.00 0.00 98 1012.9
20260905080050 77 0 0.0 0.0 0.00 0.00 0.00 98 1013.0
20260905075523 77 0 0.0 0.0 0.00 0.00 0.00 98 1013.1
20260905075023 77 0 0.0 0.0 0.00 0.00 0.00 97 1013.1
20260905074541 77 0 0.0 0.0 0.00 0.00 0.00 97 1013.2
20260905074026 77 0 0.0 0.0 0.00 0.00 0.00 97 1013.1
20260905073524 77 0 0.0 0.0 0.00 0.00 0.00 97 1013.0
20260905073051 77 0 0.0 0.0 0.00 0.00 0.00 97 1013.0
20260905072525 77 0 0.0 0.0 0.00 0.00 0.00 97 1013.0
20260905072024 77 0 0.0 0.0 0.00 0.00 0.00 97 1013.0
20260905071545 77 0 0.0 0.0 0.00 0.00 0.00 97 1013.1
20260905071027 77 0 0.0 0.0 0.00 0.00 0.00 97 1013.0
20260905070524 77 0 0.0 0.0 0.00 0.00 0.00 97 1013.0
20260905070044 77 0 0.0 0.0 0.00 0.00 0.00 97 1013.0
20260905065524 77 0 0.0 0.0 0.00 0.00 0.00 97 1013.1
20260905065024 77 0 0.0 0.0 0.00 0.00 0.00 97 1013.2
20260905064543 77 0 0.0 0.0 0.00 0.00 0.00 97 1013.1
20260905064024 77 0 0.0 0.0 0.00 0.00 0.00 97 1013.3
20260905063524 77 0 0.0 0.0 0.00 0.00 0.00 96 1013.2
20260905063039 77 0 0.0 0.0 0.00 0.00 0.00 96 1013.2
20260905062524 77 0 0.0 0.0 0.00 0.00 0.00 96 1013.3
20260905062024 78 0 0.0 0.0 0.00 0.00 0.00 96 1013.2
20260905061606 78 0 0.0 0.0 0.00 0.00 0.00 96 1013.1
20260905061023 78 0 0.0 0.0 0.00 0.00 0.00 96 1013.1
20260905060526 78 0 0.0 0.0 0.00 0.00 0.00 95 1013.2
20260905060051 78 0 0.0 0.0 0.00 0.00 0.00 95 1013.4
20260905055523 78 0 0.0 0.0 0.00 0.00 0.00 95 1013.3
20260905055028 78 0 0.0 0.0 0.00 0.00 0.00 95 1013.5
20260905054541 79 0 0.0 0.0 0.00 0.00 0.00 95 1013.5
20260905054024 79 0 0.0 0.0 0.00 0.00 0.00 95 1013.4
20260905053524 79 0 0.0 0.0 0.00 0.00 0.00 95 1013.5
20260905053045 79 0 0.0 0.0 0.00 0.00 0.00 95 1013.5
20260905052523 79 0 0.0 0.0 0.00 0.00 0.00 95 1013.6
20260905052023 79 0 0.0 0.0 0.00 0.00 0.00 95 1013.5
20260905051540 79 0 0.0 0.0 0.00 0.00 0.00 94 1013.6
20260905051022 79 0 0.0 0.0 0.00 0.00 0.00 94 1013.8
20260905050524 79 0 0.0 0.0 0.00 0.00 0.00 94 1013.8
20260905050043 79 0 0.0 0.0 0.00 0.00 0.00 94 1013.7
20260905045528 79 0 0.0 0.0 0.00 0.00 0.00 94 1013.7
20260905045025 79 0 0.0 0.0 0.00 0.00 0.00 94 1013.8
20260905044543 79 0 0.0 0.0 0.00 0.00 0.00 94 1014.0
20260905044023 79 0 0.0 0.0 0.00 0.00 0.00 94 1014.0
20260905043525 79 0 0.0 0.0 0.00 0.00 0.00 94 1014.1
20260905043042 79 0 0.0 0.0 0.00 0.00 0.00 93 1014.3
20260905042525 79 0 0.0 0.0 0.00 0.00 0.00 93 1014.4
20260905042024 80 0 0.0 0.0 0.00 0.00 0.00 93 1014.3
20260905041540 80 0 0.0 0.0 0.00 0.00 0.00 93 1014.5
20260905041027 80 0 0.0 0.0 0.00 0.00 0.00 93 1014.5
20260905040524 80 0 0.0 0.0 0.00 0.00 0.00 93 1014.4
20260905040042 80 0 0.0 0.0 0.00 0.00 0.00 93 1014.3
20260905035524 80 0 0.0 0.0 0.00 0.00 0.00 93 1014.4
20260905035023 80 0 0.0 0.0 0.00 0.00 0.00 92 1014.3
20260905034552 80 0 0.0 0.0 0.00 0.00 0.00 92 1014.3
20260905034022 80 0 0.0 0.0 0.00 0.00 0.00 92 1014.4
20260905033524 80 0 0.0 0.0 0.00 0.00 0.00 92 1014.4
20260905033044 80 0 0.0 0.0 0.00 0.00 0.00 92 1014.5
20260905032524 80 0 0.0 0.0 0.00 0.00 0.00 91 1014.5
20260905032021 81 0 0.0 0.0 0.00 0.00 0.00 91 1014.5
20260905031543 81 0 0.0 0.0 0.00 0.00 0.00 91 1014.5
20260905031023 81 0 0.0 0.0 0.00 0.00 0.00 91 1014.5
20260905030525 81 0 0.0 0.0 0.00 0.00 0.00 91 1014.4
20260905030040 81 0 0.0 0.0 0.00 0.00 0.00 91 1014.6
20260905025524 81 0 0.0 0.0 0.00 0.00 0.00 90 1014.4
20260905025026 81 0 0.0 0.0 0.00 0.00 0.00 90 1014.4
20260905024543 81 0 0.0 0.0 0.00 0.00 0.00 90 1014.4
20260905024024 81 0 0.0 0.0 0.00 0.00 0.00 90 1014.4
20260905023524 81 0 0.0 0.0 0.00 0.00 0.00 90 1014.5
20260905023042 81 0 0.0 0.0 0.00 0.00 0.00 89 1014.5
20260905022526 81 0 0.0 0.0 0.00 0.00 0.00 89 1014.4
20260905022024 81 0 0.0 0.0 0.00 0.00 0.00 89 1014.4
20260905021546 81 0 0.0 0.0 0.00 0.00 0.00 88 1014.6
20260905021028 81 0 0.0 0.0 0.00 0.00 0.00 88 1014.5
20260905020528 81 0 0.0 0.0 0.00 0.00 0.00 87 1014.5
20260905020043 82 0 0.0 0.0 0.00 0.00 0.00 87 1014.5
20260905015524 82 0 0.0 0.0 0.00 0.00 0.00 86 1014.5
20260905015024 82 0 0.0 0.0 0.00 0.00 0.00 86 1014.4
20260905014542 82 0 0.0 0.0 0.00 0.00 0.00 86 1014.2
20260905014021 82 0 0.0 0.0 0.00 0.00 0.00 86 1014.0
20260905013524 82 0 0.0 0.0 0.00 0.00 0.00 86 1014.0
20260905013043 81 0 0.0 0.0 0.00 0.00 0.00 86 1013.8
20260905012525 81 0 0.0 0.0 0.00 0.00 0.00 86 1013.8
20260905012025 81 0 0.0 0.0 0.00 0.00 0.00 87 1013.8
20260905011545 81 0 0.0 0.0 0.00 0.00 0.00 87 1013.8
20260905011025 81 0 0.0 0.0 0.00 0.00 0.00 87 1013.9
20260905010525 81 0 0.0 0.0 0.00 0.00 0.00 86 1013.8
20260905010039 81 0 0.0 0.0 0.00 0.00 0.00 87 1013.8
20260905005524 82 0 0.0 0.0 0.00 0.00 0.00 85 1013.8